GW3416 Weather Reports


time (UTC)temp
F
wind
direction
speed
knots
gust
knots
rain 1hr
in
rain 24hr
in
rain mn
in
humidity
%
barometer
mb
20260509043601 62 245 0.9 3.5 0.00 0.68 0.15 88 1004.3
20260509042520 62 258 0.9 4.3 0.01 0.68 0.15 87 1004.3
20260509041520 63 212 0.9 1.7 0.01 0.68 0.15 87 1004.3
20260509040520 62 0.0 0.0 0.01 0.68 0.15 86 1004.3
20260509035521 63 224 0.0 1.7 0.01 0.68 0.15 85 1004.5
20260509034518 63 227 0.9 2.6 0.01 0.68 0.15 85 1004.8
20260509033521 63 267 1.7 3.5 0.01 0.68 0.15 84 1004.8
20260509032521 64 319 1.7 5.2 0.00 0.67 0.14 83 1005.2
20260509031518 64 268 0.9 3.5 0.00 0.67 0.14 83 1005.1
20260509030519 64 242 2.6 7.0 0.00 0.67 0.14 82 1005.2
20260509025518 65 270 2.6 7.0 0.00 0.67 0.14 81 1005.1
20260509024519 65 247 2.6 7.0 0.00 0.67 0.14 80 1004.9
20260509023522 66 285 2.6 7.8 0.00 0.67 0.14 79 1005.0
20260509022542 66 245 1.7 7.0 0.00 0.67 0.14 80 1005.0
20260509021518 66 262 2.6 6.1 0.00 0.67 0.14 80 1005.0
20260509020520 66 240 1.7 4.3 0.00 0.67 0.14 78 1005.1
20260509015519 66 283 1.7 5.2 0.00 0.67 0.14 78 1005.0
20260509014538 66 271 2.6 5.2 0.00 0.67 0.14 78 1004.9
20260509013518 66 253 1.7 5.2 0.00 0.67 0.14 79 1004.9
20260509012517 66 293 1.7 5.2 0.00 0.67 0.14 79 1005.1
20260509011516 65 247 2.6 7.0 0.00 0.67 0.14 80 1005.2
20260509010520 64 303 1.7 5.2 0.05 0.67 0.14 84 1005.4
20260509005518 63 240 1.7 6.1 0.05 0.67 0.14 86 1005.6
20260509004519 62 235 1.7 4.3 0.05 0.67 0.14 87 1005.9
20260509003520 63 266 2.6 7.0 0.05 0.67 0.14 87 1006.1
20260509002520 63 268 2.6 6.1 0.05 0.67 0.14 88 1006.4
20260509001602 65 275 2.6 5.2 0.05 0.67 0.14 84 1006.7
20260509000519 67 254 1.7 5.2 0.00 0.61 0.09 78 1006.5
20260508235518 66 226 1.7 4.3 0.00 0.61 0.09 80 1006.7
20260508234517 65 254 2.6 7.0 0.00 0.61 0.09 82 1006.9
20260508233520 65 263 2.6 6.1 0.00 0.61 0.09 83 1007.1
20260508232519 65 273 2.6 6.1 0.00 0.61 0.09 84 1007.0
20260508231519 64 255 1.7 4.3 0.00 0.61 0.09 87 1007.1
20260508230518 63 252 2.6 5.2 0.02 0.61 0.09 89 1007.2
20260508225518 62 256 1.7 5.2 0.03 0.61 0.09 90 1007.3
20260508224519 61 247 0.9 2.6 0.03 0.61 0.09 91 1007.4
20260508223540 60 249 1.7 4.3 0.06 0.61 0.09 91 1007.5
20260508222519 60 247 2.6 4.3 0.06 0.61 0.09 91 1007.6
20260508221518 61 255 3.5 8.7 0.06 0.61 0.09 91 1007.8
20260508220539 61 233 1.7 5.2 0.05 0.60 0.07 91 1007.6
20260508215539 62 256 1.7 5.2 0.04 0.59 0.06 90 1007.5
20260508214540 63 245 2.6 5.2 0.04 0.59 0.06 92 1007.7
20260508213519 63 301 1.7 4.3 0.00 0.55 0.02 94 1007.5
20260508212516 62 287 1.7 3.5 0.00 0.55 0.02 95 1007.6
20260508211516 61 302 1.7 3.5 0.00 0.55 0.02 95 1007.6
20260508210541 61 294 1.7 2.6 0.00 0.55 0.02 95 1007.6
20260508205522 61 314 2.6 3.5 0.00 0.55 0.02 96 1007.6
20260508204522 60 299 2.6 4.3 0.00 0.55 0.02 96 1007.6
20260508203543 60 304 1.7 3.5 0.00 0.55 0.02 96 1007.5
20260508202521 60 294 0.0 1.7 0.00 0.55 0.02 96 1007.5
20260508201522 59 301 1.7 4.3 0.00 0.55 0.02 96 1007.5
20260508200522 57 27 0.0 0.9 0.00 0.55 0.02 96 1007.3
20260508195542 56 215 0.0 0.0 0.00 0.55 0.02 96 1007.3
20260508194523 56 0.0 0.0 0.00 0.55 0.02 95 1007.2
20260508193522 56 229 0.0 0.9 0.00 0.55 0.02 95 1007.1
20260508192522 57 0.0 0.0 0.00 0.55 0.02 95 1007.1
20260508191522 57 0.0 0.0 0.00 0.55 0.02 95 1007.1
20260508190522 57 243 0.0 1.7 0.00 0.55 0.02 95 1007.1
20260508185523 58 230 0.9 0.9 0.00 0.55 0.02 95 1007.0
20260508184522 58 0.0 0.0 0.02 0.55 0.02 95 1006.9
20260508183523 59 271 0.0 0.9 0.02 0.55 0.02 95 1006.9
20260508182523 59 286 0.0 0.9 0.02 0.55 0.02 95 1006.9
20260508181523 60 273 0.9 1.7 0.02 0.55 0.02 95 1006.9
20260508180604 60 284 0.9 3.5 0.02 0.55 0.02 95 1006.9
20260508175543 60 231 0.0 0.9 0.02 0.55 0.02 95 1006.9
20260508174603 60 0.0 0.0 0.00 0.53 0.01 95 1006.8
20260508173523 60 273 0.0 0.9 0.00 0.53 0.01 95 1006.8
20260508172524 60 260 0.0 1.7 0.00 0.53 0.01 95 1006.8
20260508171523 60 262 0.0 0.9 0.00 0.53 0.01 95 1006.8
20260508170544 60 0.0 0.0 0.00 0.53 0.01 95 1006.8
20260508165524 60 283 0.9 2.6 0.00 0.53 0.01 95 1006.7
20260508164524 60 286 0.9 1.7 0.00 0.53 0.01 95 1006.7
20260508163545 59 318 0.9 2.6 0.00 0.53 0.01 95 1006.7
20260508162524 59 288 0.0 1.7 0.00 0.53 0.01 95 1006.8
20260508161524 59 300 0.0 0.9 0.00 0.53 0.01 95 1006.9
20260508160524 58 308 0.0 1.7 0.00 0.53 0.01 95 1007.0
20260508155525 58 264 0.0 0.9 0.00 0.53 0.01 95 1007.0
20260508154526 58 0.0 0.0 0.00 0.53 0.01 95 1007.0
20260508153525 58 0.0 0.0 0.00 0.53 0.01 95 1007.1
20260508152525 58 0.0 0.0 0.00 0.53 0.01 94 1007.0
20260508151525 58 0.0 0.0 0.00 0.53 0.01 94 1007.1
20260508150525 59 279 0.0 0.9 0.00 0.53 0.01 94 1007.2
20260508145525 59 280 0.0 1.7 0.00 0.53 0.01 94 1007.4
20260508144525 59 260 0.9 2.6 0.00 0.53 0.01 94 1007.5
20260508143527 58 248 0.9 4.3 0.00 0.53 0.01 94 1007.5
20260508142525 58 270 0.0 0.9 0.00 0.53 0.01 94 1007.5
20260508141526 58 210 0.0 1.7 0.00 0.53 0.01 94 1007.6
20260508140526 59 214 0.0 1.7 0.00 0.53 0.01 94 1007.8
20260508135526 59 241 0.9 1.7 0.00 0.53 0.01 94 1007.9
20260508134526 59 246 0.9 0.9 0.00 0.53 0.01 94 1007.8
20260508133547 59 248 0.0 1.7 0.00 0.53 0.01 94 1007.9
20260508132527 59 232 0.9 2.6 0.00 0.53 0.01 94 1007.9
20260508131526 59 226 0.0 0.9 0.00 0.53 0.01 94 1007.8
20260508130527 59 247 0.9 1.7 0.00 0.53 0.01 94 1007.8
20260508125547 59 356 0.0 0.0 0.01 0.53 0.01 93 1007.7
20260508124628 59 275 0.9 1.7 0.02 0.53 0.01 93 1007.9
20260508123526 59 233 0.9 1.7 0.02 0.53 0.01 93 1008.0
20260508122527 59 224 0.9 1.7 0.02 0.53 0.01 93 1008.3
20260508121527 59 286 1.7 3.5 0.03 0.53 0.01 93 1008.5
20260508120523 60 252 2.6 5.2 0.07 0.53 0.01 93 1008.3
20260508115517 60 262 2.6 6.1 0.10 0.53 0.53 93 1008.6
20260508114529 60 260 1.7 3.5 0.09 0.51 0.51 93 1008.6
20260508113522 61 274 1.7 4.3 0.09 0.51 0.51 93 1008.5
20260508112524 61 269 2.6 5.2 0.09 0.51 0.51 93 1008.5
20260508111523 63 252 3.5 7.0 0.08 0.50 0.50 92 1008.7
20260508110523 64 238 2.6 6.1 0.05 0.46 0.46 92 1008.4
20260508105529 64 265 0.9 1.7 0.01 0.42 0.42 92 1008.0
20260508104528 64 303 0.9 1.7 0.00 0.42 0.42 92 1008.2
20260508103530 64 349 0.9 2.6 0.00 0.42 0.42 92 1008.2
20260508102528 64 357 0.9 1.7 0.02 0.42 0.42 92 1008.4
20260508101528 63 305 0.0 1.7 0.05 0.42 0.42 92 1008.5
20260508100549 63 294 0.0 0.9 0.06 0.42 0.42 92 1008.5
20260508095530 63 288 0.0 0.9 0.07 0.42 0.42 91 1008.7
20260508094529 64 312 0.0 0.9 0.09 0.42 0.42 91 1008.9
20260508093530 64 6 1.7 2.6 0.10 0.42 0.42 91 1008.8
20260508092529 64 18 0.9 2.6 0.10 0.40 0.40 91 1008.9
20260508091549 64 10 1.7 2.6 0.11 0.37 0.37 91 1009.1
20260508090530 64 350 0.9 1.7 0.14 0.36 0.36 91 1009.2
20260508085549 64 320 0.0 0.9 0.14 0.35 0.35 91 1009.3
20260508084550 64 340 0.9 2.6 0.14 0.33 0.33 90 1009.4
20260508083530 64 356 1.7 2.6 0.16 0.31 0.31 90 1009.5
20260508082529 64 354 1.7 3.5 0.16 0.30 0.30 90 1009.5
20260508081539 64 356 2.6 6.1 0.14 0.26 0.26 90 1009.5
20260508080521 64 349 3.5 6.1 0.10 0.22 0.22 90 1009.5
20260508075529 64 7 1.7 4.3 0.10 0.21 0.21 90 1009.6
20260508074519 64 344 2.6 5.2 0.08 0.19 0.19 90 1009.8
20260508073519 64 359 2.6 7.0 0.04 0.15 0.15 90 1009.5
20260508072520 64 359 2.6 6.1 0.02 0.13 0.13 90 1009.9
20260508071520 64 352 3.5 7.8 0.02 0.12 0.12 90 1010.0
20260508070541 64 2 2.6 6.1 0.02 0.11 0.11 90 1009.9
20260508065520 64 9 2.6 5.2 0.03 0.11 0.11 90 1010.2
20260508064520 64 355 2.6 6.1 0.04 0.11 0.11 90 1010.1
20260508063520 64 3 2.6 7.0 0.05 0.11 0.11 90 1010.0
20260508062521 64 355 2.6 4.3 0.08 0.11 0.11 90 1009.9
20260508061518 64 11 2.6 4.3 0.10 0.11 0.11 89 1010.0
20260508060517 65 351 1.7 3.5 0.10 0.10 0.10 89 1010.2
20260508055518 65 11 2.6 4.3 0.08 0.08 0.08 88 1010.0
20260508054521 65 5 2.6 4.3 0.07 0.07 0.07 87 1010.3
20260508053521 66 4 2.6 5.2 0.06 0.06 0.06 86 1010.5
20260508052520 66 14 2.6 6.1 0.03 0.03 0.03 84 1010.7
20260508051522 67 14 3.5 7.0 0.00 0.00 0.00 82 1011.0
20260508050518 67 15 1.7 3.5 0.00 0.00 0.00 81 1011.2
20260508045521 67 10 2.6 4.3 0.00 0.00 0.00 81 1011.3
20260508044612 67 24 0.9 4.3 0.00 0.00 0.00 80 1011.5